Wind_Speed
7 7 7 7 8 8 9 9 10 11 11 12 12 13 14 14 15 15 15 16 17 18 19 19 20 21 21 22 23 24 24 25 26 28 29 29 30 31
8 8 9 9 10 10 11 11 12 12 13 14 14 15 16 16 16 17 18 18 19 20 21 22 22 23 24 25 26 26 27 28 29 30 30 31 31 32
10 10 11 12 12 12 12 13 14 14 15 16 16 17 17 17 18 19 20 21 21 22 23 23 24 25 26 27 28 29 29 30 31 31 32 32 33 33
12 12 13 13 13 14 14 15 15 16 16 17 18 18 19 20 20 21 22 23 24 24 25 26 27 27 28 29 30 31 31 32 32 33 34 34 35 35
14 14 14 14 15 15 16 16 17 18 19 19 20 21 22 22 23 23 24 25 26 26 27 28 29 30 31 31 32 33 34 35 35 36 36 36 37 38
15 15 15 16 17 17 17 18 19 20 20 21 22 23 24 25 25 26 27 27 28 29 30 31 32 33 34 35 35 36 37 38 39 39 40 40 40 40
16 16 17 18 18 19 19 20 21 21 22 23 24 25 26 27 28 29 29 30 31 32 33 34 35 36 37 37 38 39 39 40 41 42 42 42 43 43
18 18 19 19 20 20 21 22 23 23 24 25 26 27 28 29 30 31 32 32 33 34 36 37 38 38 38 39 39 40 41 41 42 42 43 44 44 45
19 19 19 20 21 22 23 24 24 25 26 27 28 29 30 31 32 34 35 35 37 38 38 39 40 40 40 41 42 43 43 44 45 45 45 46 46 47
19 20 21 22 23 24 25 26 27 28 28 29 31 32 33 34 35 36 37 38 39 40 41 41 41 42 43 44 45 45 46 46 47 47 47 47 48 49
21 22 23 23 24 25 26 28 29 30 31 32 33 34 36 37 38 39 39 40 41 41 42 43 43 44 45 46 46 47 47 48 49 49 49 50 50 51
22 23 24 25 25 27 28 30 31 32 33 34 35 36 37 39 40 41 41 42 43 43 44 45 46 46 46 46 47 48 48 49 50 51 52 52 53 53
23 24 24 26 27 28 30 31 32 33 35 35 36 38 39 40 41 42 43 44 45 45 46 47 47 48 48 47 48 49 50 50 51 52 53 53 53 54
25 26 27 28 29 31 32 33 34 35 36 37 38 40 40 42 43 44 45 45 46 47 47 48 48 48 49 48 49 49 50 51 52 52 53 53 53 54
26 27 28 30 32 33 34 35 36 38 39 40 41 42 43 44 45 46 46 46 46 47 48 48 49 49 50 50 50 50 51 50 51 52 52 53 53 53
27 28 30 32 33 35 36 38 39 40 41 42 42 43 45 46 46 46 46 46 46 47 48 49 50 50 50 50 50 50 51 51 51 51 52 52 52 52
29 31 32 34 36 37 38 39 40 41 42 43 44 45 45 46 46 47 47 47 47 48 48 49 50 50 50 50 50 50 50 50 51 51 51 51 51 51
31 32 34 35 37 38 40 41 42 42 43 44 45 46 46 47 47 48 48 48 48 49 49 49 49 49 48 48 50 50 50 50 50 50 50 49 48 48
33 34 36 37 38 40 40 41 42 43 44 45 46 46 47 48 48 48 48 48 48 48 48 49 49 48 47 46 47 50 50 49 49 49 49 48 47 47
35 36 37 39 40 41 41 41 42 44 44 45 46 47 48 48 48 48 47 48 48 48 48 48 48 48 48 48 47 47 49 50 49 48 47 47 47 47
37 38 39 40 41 41 42 43 44 45 45 46 47 47 48 48 48 47 47 47 47 47 47 47 47 48 48 48 48 46 47 48 48 48 48 48 47 46
39 40 41 41 42 42 43 44 45 45 46 46 47 48 48 48 48 47 47 47 47 47 46 46 46 47 48 48 48 47 46 47 47 48 49 49 48 46
41 41 42 42 43 44 44 45 45 46 47 47 48 48 48 48 47 47 47 47 46 46 46 46 46 48 48 48 47 47 47 47 46 46 46 47 47 46
Wind_Direction
294 296 300 304 307 308 307 306 307 308 309 311 310 308 308 309 305 303 301 300 299 298 297 296 294 291 289 287 286 285 284 284 284 282 280 279 276 274
290 291 293 297 300 299 300 302 303 304 306 306 307 307 307 306 305 304 303 302 301 298 297 296 294 292 290 288 287 286 285 284 283 283 281 281 278 276
288 292 295 298 298 299 302 302 301 303 305 306 306 305 304 304 304 304 304 304 303 302 301 298 296 293 291 289 287 287 285 284 283 282 281 280 278 276
288 293 296 298 298 299 300 302 302 303 304 305 305 305 304 304 303 303 303 303 303 303 301 300 298 296 294 290 288 287 286 286 284 283 283 282 281 279
288 291 294 296 298 299 301 302 302 303 303 302 302 302 303 303 302 303 303 302 302 302 301 300 299 298 296 294 292 289 288 287 285 285 284 283 282 281
289 289 292 295 296 298 300 302 302 302 302 302 302 302 302 302 302 302 302 301 301 301 300 300 299 297 296 295 293 291 290 288 287 286 285 284 282 281
289 290 292 292 293 296 299 301 301 301 301 302 302 302 302 301 301 301 301 301 301 300 299 299 298 297 296 294 293 292 291 291 289 287 286 285 283 281
288 289 291 292 292 295 297 299 300 300 301 302 302 302 301 301 300 300 300 299 299 298 299 299 298 298 296 295 294 293 292 291 291 289 288 286 285 283
287 288 290 293 294 295 297 299 300 301 302 302 302 302 301 301 301 300 300 299 298 298 298 298 298 298 297 296 295 294 293 292 291 290 289 288 288 286
286 288 291 293 295 297 298 300 301 302 302 301 302 302 302 302 301 301 300 300 300 299 299 299 298 298 298 297 297 295 294 293 292 291 290 289 288 287
289 291 293 294 295 296 299 301 302 302 302 302 303 303 303 303 302 301 301 301 300 300 299 299 299 299 299 298 297 296 295 294 293 292 291 290 289 288
289 290 291 293 295 297 299 300 301 302 303 303 303 303 303 303 303 303 303 302 301 301 300 301 300 300 299 298 298 297 296 295 294 293 292 290 289 288
290 291 292 294 295 297 298 300 301 302 303 303 303 303 303 304 304 304 304 303 303 302 302 301 301 301 300 299 298 298 297 296 295 294 293 291 290 288
291 291 293 294 296 298 298 300 301 302 303 303 303 303 304 304 304 305 304 304 304 303 303 303 303 303 302 301 300 299 299 298 296 295 293 292 291 290
292 293 294 295 296 298 299 300 301 302 303 303 303 303 303 304 304 304 304 305 305 305 304 304 305 305 304 304 302 301 300 299 298 297 295 294 293 292
292 294 295 297 299 300 300 301 302 303 303 303 303 304 304 305 305 304 305 305 305 305 305 305 305 305 305 305 304 303 301 300 299 299 298 297 295 294
295 295 296 299 301 301 302 302 303 303 304 304 304 305 306 306 305 305 305 305 305 305 304 304 305 305 305 305 305 304 303 302 301 300 300 299 298 296
297 298 299 300 302 302 303 304 304 304 304 304 305 305 306 306 306 306 305 305 305 305 305 305 306 306 306 306 305 305 304 304 303 302 302 301 300 298
297 299 300 301 302 303 304 304 305 305 305 305 305 305 306 307 307 306 306 305 305 306 306 306 306 307 307 306 306 306 306 305 305 304 304 303 301 299
298 300 301 302 303 304 304 305 305 305 305 306 307 307 307 308 308 307 307 306 306 306 306 307 307 308 308 309 309 308 307 307 307 306 305 305 303 301
298 300 302 303 304 304 305 305 305 305 305 307 308 308 308 308 308 308 307 307 307 307 307 307 308 308 309 309 310 310 309 308 309 309 308 307 306 304
299 300 301 303 304 304 305 305 306 306 307 308 308 309 309 309 309 308 308 308 308 308 307 307 307 308 309 310 310 310 310 309 310 310 310 309 309 307
299 300 301 302 303 304 305 306 306 307 307 308 309 310 310 310 309 309 309 309 309 308 308 308 308 309 310 310 311 311 311 311 310 310 309 309 309 308
Height
5866 5866 5865 5864 5863 5862 5861 5860 5859 5857 5855 5854 5852 5850 5848 5846 5844 5842 5841 5839 5837 5836 5834 5832 5830 5829 5827 5826 5824 5823 5821 5820 5818 5817 5815 5814 5813 5812
5864 5863 5863 5862 5861 5859 5858 5857 5856 5854 5852 5851 5849 5847 5845 5843 5841 5839 5837 5835 5833 5831 5829 5827 5825 5823 5821 5819 5818 5816 5814 5812 5810 5809 5807 5805 5804 5803
5862 5861 5860 5859 5858 5857 5855 5854 5852 5851 5849 5847 5845 5843 5841 5839 5837 5835 5832 5830 5828 5826 5823 5821 5819 5817 5814 5812 5810 5808 5806 5804 5802 5800 5798 5796 5795 5793
5859 5858 5857 5856 5854 5853 5852 5850 5849 5847 5845 5843 5841 5839 5837 5835 5832 5830 5827 5825 5822 5820 5817 5814 5812 5809 5807 5804 5802 5799 5797 5794 5792 5790 5788 5786 5784 5783
5855 5854 5853 5852 5851 5849 5848 5846 5845 5843 5841 5839 5836 5834 5832 5829 5827 5824 5822 5819 5816 5813 5810 5807 5804 5801 5798 5795 5793 5790 5787 5784 5782 5780 5778 5776 5773 5772
5852 5850 5849 5848 5847 5845 5843 5842 5840 5838 5836 5834 5831 5829 5826 5823 5821 5818 5815 5812 5809 5805 5802 5799 5795 5792 5789 5786 5783 5779 5776 5773 5770 5768 5766 5764 5762 5759
5848 5846 5845 5844 5842 5841 5839 5837 5835 5833 5830 5828 5825 5822 5819 5816 5814 5810 5807 5804 5800 5797 5793 5790 5786 5782 5778 5775 5771 5768 5765 5761 5758 5755 5753 5751 5748 5746
5843 5842 5840 5839 5837 5835 5834 5831 5829 5827 5824 5821 5819 5815 5812 5809 5806 5802 5799 5796 5792 5789 5784 5780 5776 5772 5767 5764 5760 5756 5753 5749 5746 5743 5740 5737 5734 5732
5838 5837 5835 5834 5832 5830 5828 5825 5823 5820 5817 5814 5811 5808 5805 5801 5798 5794 5790 5786 5782 5778 5774 5770 5765 5760 5756 5752 5748 5744 5740 5736 5732 5729 5726 5723 5720 5717
5832 5831 5830 5828 5826 5824 5821 5819 5816 5813 5810 5807 5803 5799 5796 5792 5788 5784 5780 5776 5771 5766 5761 5758 5753 5749 5744 5739 5734 5730 5726 5722 5718 5714 5711 5708 5704 5701
5827 5825 5824 5822 5819 5817 5815 5812 5809 5805 5801 5798 5794 5790 5786 5782 5777 5773 5769 5764 5760 5755 5750 5745 5741 5737 5732 5726 5721 5716 5711 5707 5703 5699 5695 5692 5688 5685
5820 5819 5817 5815 5813 5810 5807 5804 5801 5797 5793 5789 5785 5781 5776 5771 5766 5762 5757 5752 5748 5743 5738 5733 5728 5723 5719 5714 5708 5702 5697 5692 5687 5683 5679 5675 5671 5668
5814 5812 5810 5808 5805 5803 5799 5796 5793 5789 5785 5780 5776 5771 5766 5761 5756 5750 5745 5740 5735 5730 5725 5719 5714 5708 5703 5699 5694 5688 5682 5677 5672 5667 5662 5658 5654 5650
5807 5805 5803 5800 5798 5794 5791 5788 5784 5779 5775 5771 5766 5761 5756 5751 5745 5739 5734 5728 5722 5716 5711 5705 5699 5694 5688 5683 5679 5673 5667 5661 5656 5651 5646 5641 5636 5631
5800 5798 5795 5792 5789 5786 5782 5778 5774 5770 5765 5761 5756 5751 5745 5739 5734 5728 5722 5716 5710 5703 5697 5691 5685 5679 5673 5667 5662 5657 5651 5646 5639 5634 5629 5624 5619 5614
5792 5790 5787 5784 5781 5777 5773 5769 5764 5759 5754 5750 5744 5739 5733 5727 5721 5716 5710 5704 5698 5692 5684 5678 5671 5665 5659 5653 5647 5641 5635 5629 5624 5618 5613 5608 5602 5596
5785 5782 5779 5775 5772 5768 5763 5759 5754 5748 5743 5738 5733 5727 5722 5716 5709 5703 5697 5691 5685 5679 5673 5665 5658 5652 5645 5639 5633 5626 5620 5614 5608 5602 5597 5592 5586 5579
5777 5774 5770 5766 5762 5758 5753 5748 5743 5737 5732 5727 5721 5716 5710 5704 5697 5691 5684 5678 5672 5666 5659 5653 5646 5640 5633 5626 5618 5612 5606 5600 5594 5588 5581 5577 5572 5565
5768 5765 5761 5757 5752 5748 5743 5737 5732 5726 5721 5715 5710 5704 5698 5691 5685 5678 5672 5665 5659 5653 5646 5639 5632 5626 5621 5616 5608 5598 5592 5587 5581 5574 5567 5561 5556 5551
5759 5755 5751 5746 5742 5737 5732 5726 5721 5715 5709 5704 5698 5692 5685 5679 5672 5666 5659 5652 5646 5640 5633 5626 5619 5613 5606 5601 5595 5588 5578 5571 5566 5560 5554 5548 5543 5537
5749 5745 5741 5736 5731 5726 5720 5715 5709 5704 5698 5692 5686 5679 5673 5666 5659 5653 5646 5640 5633 5627 5621 5614 5607 5600 5593 5587 5582 5575 5567 5558 5551 5545 5540 5534 5529 5524
5739 5735 5730 5725 5720 5715 5709 5704 5698 5692 5686 5680 5673 5667 5660 5653 5647 5640 5634 5628 5621 5615 5609 5602 5595 5589 5582 5575 5569 5562 5556 5548 5540 5532 5524 5518 5512 5508
5729 5724 5719 5714 5709 5703 5698 5692 5686 5680 5674 5668 5662 5655 5648 5641 5635 5628 5622 5615 5609 5603 5597 5591 5584 5577 5570 5563 5556 5550 5543 5537 5530 5523 5515 5506 5499 5493